period_start,C,m1,H,J0,J1,J2,J3,J4,J5,JA,JB,JC,JD,JJ,JK,JN,#
2016-10-08 00:01:03,0.01,0.54,0.00,24.86,28.50,31.43,14.56,42.58,1034.20,2028.38,3323.85,2978.99,3381.96,600.04,602.60,9.45,0000 0000 0000 0000 000000
2016-10-08 00:06:05,0.07,0.54,0.00,24.83,28.50,31.42,14.55,42.61,1034.20,2028.53,3322.92,2978.44,3381.19,599.81,602.42,9.50,0000 0000 0000 0000 000000
2016-10-08 00:11:06,0.06,0.55,0.00,24.87,28.50,31.44,14.54,42.55,1034.20,2028.71,3321.74,2977.82,3380.49,599.82,602.28,9.55,0000 0000 0000 0000 000000
2016-10-08 00:16:08,0.10,0.55,0.00,24.88,28.50,31.43,14.65,42.59,1034.20,2028.72,3319.16,2976.33,3378.94,600.33,602.94,9.60,0000 0000 0000 0000 000000
2016-10-08 00:21:09,0.09,0.56,0.00,24.87,28.50,31.44,14.56,42.31,1034.18,2028.85,3317.50,2975.33,3377.87,600.09,602.61,9.65,0000 0000 0000 0000 000000
2016-10-08 00:26:10,0.04,0.56,0.00,24.86,28.50,31.41,14.52,42.57,1034.02,2028.76,3315.97,2974.32,3376.81,599.83,602.24,9.70,0000 0000 0000 0000 000000
2016-10-08 00:31:11,0.99,0.59,0.00,24.89,28.50,31.41,14.58,42.66,1033.79,2028.56,3295.54,2963.46,3364.88,600.24,602.41,9.75,0000 0000 0000 0000 000000
2016-10-08 00:36:12,0.05,0.61,0.00,24.91,28.50,31.42,14.50,42.55,1033.90,2028.58,3290.02,2960.12,3361.11,600.08,602.43,9.80,0000 0000 0000 0000 000000
2016-10-08 00:41:14,0.06,0.61,0.00,24.88,28.50,31.46,14.57,42.59,1033.77,2028.62,3289.05,2959.72,3360.68,600.17,602.43,9.85,0000 0000 0000 0000 000000
2016-10-08 00:46:15,0.06,0.62,0.00,24.89,28.50,31.45,14.64,42.58,1033.72,2028.58,3287.17,2958.91,3359.65,600.22,602.45,9.90,0000 0000 0000 0000 000000
2016-10-08 00:51:16,0.02,0.62,0.00,24.88,28.50,31.43,14.59,42.65,1033.72,2028.31,3286.01,2958.08,3358.94,599.59,601.84,9.95,0000 0000 0000 0000 000000
2016-10-08 00:56:17,0.08,0.62,0.00,24.87,28.50,31.43,14.56,42.52,1033.72,2028.44,3284.50,2957.38,3357.85,600.43,602.64,10.00,0000 0000 0000 0000 000000
2016-10-08 01:01:19,0.11,0.63,0.00,24.92,28.50,31.42,14.56,42.51,1033.72,2028.57,3281.74,2955.98,3356.21,600.20,602.35,10.05,0000 0000 0000 0000 000000
2016-10-08 01:06:21,0.06,0.63,0.00,24.91,28.50,31.43,14.53,42.63,1033.71,2028.55,3280.58,2955.08,3355.61,599.89,602.09,10.10,0000 0000 0000 0000 000000
2016-10-08 01:11:22,0.12,0.64,0.00,24.88,28.50,31.43,14.60,42.61,1033.71,2028.62,3277.57,2953.48,3353.71,599.88,602.18,10.15,0000 0000 0000 0000 000000
2016-10-08 01:16:24,0.09,0.64,0.00,24.89,28.50,31.42,14.63,42.66,1033.72,2028.60,3275.67,2952.34,3352.46,600.30,602.53,10.20,0000 0000 0000 0000 000000
2016-10-08 01:21:25,0.10,0.65,0.00,24.93,28.50,31.44,14.51,42.62,1033.72,2028.44,3273.28,2950.69,3350.64,599.85,602.04,10.25,0000 0000 0000 0000 000000
2016-10-08 01:26:26,0.10,0.65,0.00,24.93,28.50,31.42,14.60,42.68,1033.71,2028.39,3270.79,2948.98,3348.82,600.03,602.27,10.30,0000 0000 0000 0000 000000
2016-10-08 01:31:28,0.14,0.66,0.00,24.95,28.50,31.45,14.53,42.69,1033.71,2028.40,3267.73,2947.03,3346.59,599.95,602.17,10.35,0000 0000 0000 0000 000000
2016-10-08 01:36:29,0.17,0.67,0.00,24.95,28.50,31.45,14.58,42.60,1033.71,2028.56,3264.52,2944.95,3344.21,599.92,602.01,10.40,0000 0000 0000 0000 000000
2016-10-08 01:41:30,0.15,0.67,0.00,24.94,28.51,31.44,14.50,42.55,1033.71,2028.53,3261.30,2942.68,3341.69,600.15,602.27,10.45,0000 0000 0000 0000 000000
2016-10-08 01:46:31,0.09,0.68,0.00,24.90,28.52,31.45,14.57,42.51,1033.70,2028.30,3258.50,2940.59,3339.42,600.30,602.60,10.50,0000 0000 0000 0000 000000
2016-10-08 01:51:33,0.02,0.68,0.00,24.97,28.52,31.42,14.57,42.70,1033.66,2028.17,3257.39,2939.93,3338.44,599.80,601.91,10.55,0000 0000 0000 0000 000000
2016-10-08 01:56:34,0.06,0.69,0.00,24.99,28.52,31.44,14.49,42.51,1033.51,2028.13,3256.41,2939.07,3337.54,599.84,601.74,10.60,0000 0000 0000 0000 000000
2016-10-08 02:01:35,0.09,0.69,0.00,24.98,28.52,31.41,14.53,42.54,1033.43,2028.06,3254.46,2937.77,3336.05,599.85,601.72,10.65,0000 0000 0000 0000 000000
2016-10-08 02:06:36,0.12,0.70,0.00,24.95,28.52,31.43,14.59,42.51,1033.47,2028.06,3252.08,2936.12,3334.21,600.20,602.19,10.70,0000 0000 0000 0000 000000
2016-10-08 02:11:37,0.09,0.70,0.00,24.96,28.52,31.47,14.58,42.44,1033.60,2028.03,3249.84,2934.71,3332.66,599.94,601.96,10.75,0000 0000 0000 0000 000000
2016-10-08 02:16:39,0.09,0.71,0.00,24.99,28.52,31.42,14.59,42.54,1033.59,2028.05,3247.51,2933.29,3330.98,600.06,602.00,10.80,0000 0000 0000 0000 000000
2016-10-08 02:21:40,0.06,0.71,0.00,24.98,28.52,31.45,14.47,42.56,1033.55,2028.05,3246.10,2932.35,3330.04,599.69,601.77,10.85,0000 0000 0000 0000 000000
2016-10-08 02:26:41,0.02,0.71,0.00,24.98,28.53,31.47,14.53,42.60,1033.51,2028.03,3245.33,2932.00,3329.45,599.84,601.76,10.90,0000 0000 0000 0000 000000
2016-10-08 02:31:43,0.01,0.71,0.00,24.99,28.54,31.47,14.53,42.69,1033.40,2028.02,3244.89,2931.65,3328.99,599.65,601.61,10.95,0000 0000 0000 0000 000000
2016-10-08 02:36:44,0.03,0.72,0.00,24.97,28.55,31.45,14.50,42.59,1033.25,2028.02,3244.10,2931.05,3328.42,600.18,601.95,11.00,0000 0000 0000 0000 000000
2016-10-08 02:41:45,0.00,0.72,0.00,25.01,28.55,31.46,14.42,42.58,1033.23,2028.03,3244.00,2931.00,3328.03,599.36,601.09,11.05,0000 0000 0000 0000 000000
2016-10-08 02:46:47,0.00,0.72,0.00,25.02,28.55,31.45,14.56,42.71,1033.23,2028.03,3243.86,2930.98,3327.99,599.98,601.56,11.10,0000 0000 0000 0000 000000
2016-10-08 02:51:48,0.04,0.72,0.00,24.98,28.55,31.44,14.49,42.63,1033.24,2028.01,3243.07,2930.59,3327.48,599.82,601.55,11.15,0000 0000 0000 0000 000000
2016-10-08 02:56:49,0.01,0.72,0.00,25.00,28.56,31.45,14.46,42.70,1033.30,2028.01,3242.97,2930.03,3327.02,599.92,601.67,11.20,0000 0000 0000 0000 000000
2016-10-08 03:01:51,0.00,0.72,0.00,24.95,28.57,31.44,14.57,42.54,1033.58,2028.01,3242.70,2930.00,3327.00,600.17,602.12,11.25,0000 0000 0000 0000 000000
2016-10-08 03:06:52,0.01,0.72,0.00,24.99,28.57,31.47,14.44,42.50,1033.60,2028.01,3242.09,2929.99,3326.84,599.99,602.01,11.31,0000 0000 0000 0000 000000
2016-10-08 03:11:54,0.02,0.72,0.00,25.00,28.57,31.46,14.60,42.72,1033.52,2028.00,3241.97,2929.68,3326.13,600.62,602.50,11.36,0000 0000 0000 0000 000000
2016-10-08 03:16:55,0.02,0.72,0.00,25.01,28.57,31.47,14.56,42.75,1033.61,2028.00,3241.34,2929.04,3325.99,600.38,602.39,11.41,0000 0000 0000 0000 000000
2016-10-08 03:21:56,0.01,0.72,0.00,25.01,28.59,31.46,14.48,42.49,1033.64,2028.00,3241.03,2929.00,3325.68,599.75,601.65,11.46,0000 0000 0000 0000 000000
2016-10-08 03:26:58,0.00,0.72,0.00,24.99,28.60,31.51,14.58,42.47,1033.41,2028.00,3240.90,2928.98,3325.03,600.34,602.06,11.51,0000 0000 0000 0000 000000
2016-10-08 03:31:59,0.04,0.73,0.00,24.92,28.60,31.48,14.56,42.61,1033.26,2028.00,3240.12,2928.39,3324.70,600.23,602.13,11.56,0000 0000 0000 0000 000000
2016-10-08 03:37:01,0.01,0.73,0.00,24.94,28.60,31.48,14.47,42.54,1033.23,2028.00,3239.77,2928.01,3324.03,600.03,601.87,11.61,0000 0000 0000 0000 000000
2016-10-08 03:42:02,0.02,0.73,0.00,24.94,28.60,31.48,14.55,42.48,1033.23,2028.00,3239.05,2927.88,3323.66,600.10,601.95,11.66,0000 0000 0000 0000 000000
2016-10-08 03:47:04,0.03,0.73,0.00,24.94,28.61,31.48,14.48,42.49,1033.23,2028.00,3238.66,2927.24,3323.05,599.99,601.83,11.71,0000 0000 0000 0000 000000
2016-10-08 03:52:05,0.00,0.73,0.00,24.96,28.62,31.47,14.56,42.50,1033.22,2028.00,3238.02,2927.00,3322.94,600.17,601.95,11.76,0000 0000 0000 0000 000000
2016-10-08 03:57:06,0.04,0.73,0.00,24.97,28.62,31.54,14.60,42.66,1033.24,2027.99,3237.52,2926.68,3322.22,600.21,602.00,11.81,0000 0000 0000 0000 000000
2016-10-08 04:02:07,0.03,0.73,0.00,24.93,28.62,31.51,14.49,42.51,1033.23,2027.99,3236.74,2926.08,3321.74,599.70,601.58,11.86,0000 0000 0000 0000 000000
2016-10-08 04:07:08,0.06,0.74,0.00,24.96,28.62,31.51,14.53,42.50,1033.22,2027.99,3235.58,2925.37,3320.81,600.04,601.82,11.91,0000 0000 0000 0000 000000
2016-10-08 04:12:09,0.10,0.74,0.00,24.93,28.62,31.49,14.59,42.54,1033.22,2027.99,3233.34,2923.92,3319.27,600.42,602.21,11.96,0000 0000 0000 0000 000000
2016-10-08 04:17:10,0.15,0.75,0.00,24.92,28.62,31.50,14.54,42.61,1033.22,2027.99,3230.51,2921.97,3317.10,600.01,601.95,12.01,0000 0000 0000 0000 000000
2016-10-08 04:22:12,0.21,0.76,0.00,24.90,28.62,31.48,14.50,42.58,1033.22,2027.99,3226.04,2918.75,3313.59,599.92,601.79,12.06,0000 0000 0000 0000 000000
2016-10-08 04:27:13,0.06,0.77,0.00,24.91,28.62,31.44,14.42,42.55,1033.21,2027.99,3224.08,2917.19,3312.05,600.11,601.96,12.11,0000 0000 0000 0000 000000
2016-10-08 04:32:15,0.04,0.77,0.00,24.94,28.62,31.52,14.49,42.44,1033.17,2027.99,3223.22,2916.75,3311.36,599.72,601.55,12.16,0000 0000 0000 0000 000000
2016-10-08 04:37:16,0.07,0.77,0.00,24.87,28.62,31.49,14.61,42.51,1033.12,2027.99,3221.76,2915.78,3310.26,600.07,601.90,12.21,0000 0000 0000 0000 000000
2016-10-08 04:42:17,0.07,0.77,0.00,24.89,28.62,31.52,14.48,42.51,1033.18,2027.99,3220.29,2914.69,3309.01,599.99,601.89,12.26,0000 0000 0000 0000 000000
2016-10-08 04:47:18,0.09,0.78,0.00,24.83,28.61,31.48,14.57,42.59,1033.15,2027.99,3218.42,2913.48,3307.56,599.86,601.84,12.31,0000 0000 0000 0000 000000
2016-10-08 04:52:19,0.08,0.78,0.00,24.84,28.61,31.53,14.55,42.55,1032.99,2027.98,3216.27,2912.08,3305.93,600.01,601.97,12.36,0000 0000 0000 0000 000000
2016-10-08 04:57:21,0.06,0.79,0.00,24.83,28.60,31.53,14.48,42.51,1032.82,2027.99,3214.96,2911.08,3304.82,599.90,601.71,12.41,0000 0000 0000 0000 000000
2016-10-08 05:02:22,0.04,0.79,0.00,24.83,28.60,31.48,14.62,42.52,1032.76,2027.99,3214.03,2910.15,3304.03,600.00,601.88,12.46,0000 0000 0000 0000 000000
2016-10-08 05:07:24,0.02,0.79,0.00,24.81,28.60,31.54,14.53,42.53,1032.74,2027.99,3213.26,2909.99,3303.41,599.88,601.72,12.51,0000 0000 0000 0000 000000
2016-10-08 05:12:25,0.02,0.79,0.00,24.85,28.60,31.55,14.51,42.44,1032.74,2027.99,3212.91,2909.75,3303.00,600.25,601.98,12.56,0000 0000 0000 0000 000000
2016-10-08 05:17:26,0.02,0.79,0.00,24.89,28.60,31.54,14.53,42.56,1032.74,2027.98,3212.33,2909.14,3302.82,599.98,601.69,12.61,0000 0000 0000 0000 000000
2016-10-08 05:22:27,0.01,0.80,0.00,24.86,28.60,31.57,14.53,42.35,1032.73,2027.99,3212.04,2909.02,3302.19,599.99,601.71,12.66,0000 0000 0000 0000 000000
2016-10-08 05:27:29,0.00,0.80,0.00,24.81,28.60,31.58,14.56,42.51,1032.73,2027.99,3211.99,2909.00,3302.01,600.21,602.02,12.71,0000 0000 0000 0000 000000
2016-10-08 05:32:30,0.01,0.80,0.00,24.82,28.60,31.61,14.52,42.60,1032.73,2027.99,3211.53,2908.97,3301.94,599.91,601.62,12.76,0000 0000 0000 0000 000000
2016-10-08 05:37:32,0.03,0.80,0.00,24.84,28.60,31.56,14.54,42.47,1032.73,2027.99,3211.03,2908.61,3301.38,600.12,601.82,12.81,0000 0000 0000 0000 000000
2016-10-08 05:42:33,0.02,0.80,0.00,24.78,28.59,31.49,14.55,42.54,1032.73,2027.99,3210.68,2908.02,3301.01,599.93,601.80,12.86,0000 0000 0000 0000 000000
2016-10-08 05:47:35,0.06,0.80,0.00,24.82,28.58,31.54,14.52,42.39,1032.72,2027.99,3209.56,2907.63,3300.24,599.66,601.48,12.91,0000 0000 0000 0000 000000
2016-10-08 05:52:36,0.09,0.81,0.00,24.78,28.57,31.56,14.58,42.41,1032.71,2027.99,3207.47,2906.23,3298.52,600.11,601.97,12.96,0000 0000 0000 0000 000000
2016-10-08 05:57:37,0.00,0.81,0.00,24.73,28.57,31.57,14.47,42.36,1032.64,2027.99,3206.98,2905.97,3298.00,600.00,601.88,13.01,0000 0000 0000 0000 000000
2016-10-08 06:02:38,0.03,0.81,0.00,24.79,28.57,31.59,14.49,42.42,1032.61,2027.99,3206.37,2905.55,3297.86,599.69,601.41,13.06,0000 0000 0000 0000 000000
2016-10-08 06:07:39,0.02,0.81,0.00,24.76,28.57,31.59,14.55,42.38,1032.62,2027.99,3205.99,2905.05,3297.15,600.13,601.87,13.11,0000 0000 0000 0000 000000
2016-10-08 06:12:41,0.02,0.81,0.00,24.77,28.55,31.54,14.56,42.27,1032.65,2027.99,3205.27,2904.89,3296.81,600.24,601.99,13.16,0000 0000 0000 0000 000000
2016-10-08 06:17:42,0.06,0.81,0.00,24.79,28.55,31.59,14.56,42.37,1032.63,2027.99,3204.11,2904.06,3295.84,599.97,601.76,13.21,0000 0000 0000 0000 000000
2016-10-08 06:22:43,0.05,0.82,0.00,24.79,28.55,31.51,14.55,42.40,1032.64,2027.99,3203.05,2903.31,3294.99,599.87,601.68,13.26,0000 0000 0000 0000 000000
2016-10-08 06:27:44,0.03,0.82,0.00,24.83,28.54,31.59,14.54,42.41,1032.66,2027.99,3202.19,2903.00,3294.20,599.76,601.53,13.31,0000 0000 0000 0000 000000
2016-10-08 06:32:46,0.00,0.82,0.00,24.81,28.52,31.59,14.50,42.42,1032.70,2028.01,3201.99,2902.96,3294.00,600.09,601.92,13.36,0000 0000 0000 0000 000000
2016-10-08 06:37:47,0.02,0.82,0.00,24.79,28.52,31.58,14.55,42.63,1032.59,2028.01,3201.76,2902.54,3293.89,599.88,601.66,13.41,0000 0000 0000 0000 000000
2016-10-08 06:42:48,0.03,0.82,0.00,24.78,28.52,31.61,14.56,42.53,1032.50,2028.01,3201.06,2902.07,3293.17,600.07,601.82,13.46,0000 0000 0000 0000 000000
2016-10-08 06:47:49,0.00,0.82,0.00,24.82,28.52,31.59,14.53,42.67,1032.46,2028.01,3200.74,2902.00,3292.99,600.04,601.53,13.51,0000 0000 0000 0000 000000
2016-10-08 06:52:50,0.03,0.82,0.00,24.82,28.50,31.51,14.56,42.64,1032.41,2028.01,3200.05,2901.88,3292.41,600.36,601.96,13.56,0000 0000 0000 0000 000000
2016-10-08 06:57:51,0.03,0.83,0.00,24.78,28.50,31.46,14.56,42.60,1032.37,2028.02,3199.58,2901.19,3292.00,599.93,601.57,13.61,0000 0000 0000 0000 000000
2016-10-08 07:02:52,0.03,0.83,0.00,24.79,28.50,31.54,14.49,42.54,1032.27,2028.04,3198.71,2900.89,3291.31,599.76,601.34,13.67,0000 0000 0000 0000 000000
2016-10-08 07:07:54,0.05,0.83,0.00,24.78,28.50,31.55,14.55,42.48,1032.25,2028.05,3197.80,2900.10,3290.48,600.25,601.86,13.72,0000 0000 0000 0000 000000
2016-10-08 07:12:55,0.01,0.83,0.00,24.80,28.48,31.46,14.49,42.52,1032.24,2028.08,3197.05,2899.97,3290.00,599.86,601.26,13.77,0000 0000 0000 0000 000000
2016-10-08 07:17:56,0.05,0.83,0.00,24.80,28.47,31.50,14.42,42.44,1032.24,2028.13,3196.51,2899.32,3289.63,599.82,601.32,13.82,0000 0000 0000 0000 000000
2016-10-08 07:22:57,0.02,0.84,0.00,24.78,28.47,31.49,14.59,42.53,1032.24,2028.25,3196.01,2899.01,3289.02,600.20,601.84,13.87,0000 0000 0000 0000 000000
2016-10-08 07:27:59,0.01,0.84,0.00,24.75,28.47,31.50,14.43,42.37,1032.24,2028.40,3195.79,2898.99,3288.97,599.93,601.56,13.92,0000 0000 0000 0000 000000
2016-10-08 07:33:00,0.01,0.84,0.00,24.81,28.46,31.54,14.64,42.56,1032.24,2028.41,3195.14,2898.95,3288.73,600.25,601.79,13.97,0000 0000 0000 0000 000000
2016-10-08 07:38:01,0.04,0.84,0.00,24.79,28.45,31.49,14.53,42.41,1032.24,2028.66,3195.00,2898.74,3288.12,600.07,601.78,14.02,0000 0000 0000 0000 000000
2016-10-08 07:43:02,-0.01,0.84,0.00,24.82,28.45,31.46,14.57,42.44,1032.24,2028.44,3194.99,2898.19,3288.00,600.03,601.52,14.07,0000 0000 0000 0000 000000
2016-10-08 07:48:04,0.03,0.84,0.00,24.81,28.45,31.52,14.49,42.29,1032.24,2028.61,3194.88,2898.07,3288.00,599.93,601.48,14.12,0000 0000 0000 0000 000000
2016-10-08 07:53:05,0.02,0.84,0.00,24.79,28.45,31.46,14.62,42.53,1032.24,2028.71,3194.23,2898.01,3287.91,600.22,601.73,14.17,0000 0000 0000 0000 000000
2016-10-08 07:58:06,0.00,0.84,0.00,24.85,28.45,31.53,14.53,42.38,1032.23,2028.72,3194.01,2897.99,3287.24,600.10,601.51,14.22,0000 0000 0000 0000 000000
2016-10-08 08:03:07,0.02,0.84,0.00,24.83,28.44,31.54,14.46,42.58,1032.21,2028.82,3193.98,2897.95,3287.00,599.95,601.41,14.27,0000 0000 0000 0000 000000
2016-10-08 08:08:09,0.01,0.84,0.00,24.81,28.42,31.46,14.52,42.47,1032.21,2028.79,3193.53,2897.74,3286.99,600.29,601.76,14.32,0000 0000 0000 0000 000000
2016-10-08 08:13:10,0.05,0.85,0.00,24.84,28.42,31.43,14.57,42.53,1032.21,2028.74,3192.41,2897.15,3286.36,599.87,601.32,14.37,0000 0000 0000 0000 000000
2016-10-08 08:18:11,0.01,0.85,0.00,24.81,28.42,31.51,14.57,42.51,1032.21,2028.78,3191.86,2896.93,3285.96,600.06,601.56,14.42,0000 0000 0000 0000 000000
2016-10-08 08:23:12,0.02,0.85,0.00,24.79,28.42,31.45,14.53,42.32,1032.22,2028.90,3191.35,2896.84,3285.83,600.02,601.53,14.47,0000 0000 0000 0000 000000
2016-10-08 08:28:14,0.02,0.85,0.00,24.84,28.40,31.43,14.54,42.45,1032.22,2028.90,3191.05,2896.33,3285.21,600.39,601.82,14.52,0000 0000 0000 0000 000000
2016-10-08 08:33:15,0.01,0.85,0.00,24.84,28.40,31.48,14.48,42.46,1032.24,2028.90,3191.00,2896.05,3285.00,599.85,601.27,14.57,0000 0000 0000 0000 000000
2016-10-08 08:38:16,0.09,0.85,0.00,24.83,28.40,31.44,14.57,42.44,1032.23,2028.93,3189.25,2895.43,3284.35,600.28,601.69,14.62,0000 0000 0000 0000 000000
2016-10-08 08:43:18,0.02,0.86,0.00,24.82,28.40,31.38,14.61,42.54,1032.23,2028.96,3188.01,2895.00,3283.46,599.99,601.49,14.67,0000 0000 0000 0000 000000
2016-10-08 08:48:19,0.01,0.86,0.00,24.83,28.39,31.45,14.56,42.41,1032.23,2028.97,3187.96,2894.98,3283.06,599.98,601.47,14.72,0000 0000 0000 0000 000000
2016-10-08 08:53:21,0.01,0.86,0.00,24.88,28.37,31.40,14.49,42.37,1032.15,2028.98,3187.72,2894.77,3283.00,599.87,601.12,14.77,0000 0000 0000 0000 000000
2016-10-08 08:58:22,0.01,0.86,0.00,24.84,28.37,31.40,14.56,42.52,1031.86,2028.98,3187.21,2894.41,3282.99,600.22,601.43,14.82,0000 0000 0000 0000 000000
2016-10-08 09:03:23,0.01,0.86,0.00,24.81,28.37,31.44,14.52,42.41,1031.82,2028.98,3187.02,2894.11,3282.96,600.16,601.45,14.87,0000 0000 0000 0000 000000
2016-10-08 09:08:25,0.01,0.86,0.00,24.82,28.37,31.40,14.46,42.42,1031.91,2028.96,3186.99,2894.01,3282.54,600.17,601.41,14.92,0000 0000 0000 0000 000000
2016-10-08 09:13:26,0.00,0.86,0.00,24.85,28.35,31.43,14.57,42.47,1031.87,2028.98,3186.98,2894.00,3282.12,599.86,601.12,14.97,0000 0000 0000 0000 000000
2016-10-08 09:18:27,0.00,0.86,0.00,24.80,28.35,31.35,14.50,42.38,1031.97,2028.98,3186.96,2894.00,3282.07,600.10,601.53,15.02,0000 0000 0000 0000 000000
2016-10-08 09:23:29,0.00,0.86,0.00,24.79,28.35,31.36,14.54,42.38,1032.01,2028.98,3186.78,2894.00,3282.01,600.10,601.50,15.07,0000 0000 0000 0000 000000
2016-10-08 09:28:30,0.01,0.86,0.00,24.81,28.35,31.38,14.57,42.48,1031.96,2028.99,3186.18,2893.98,3282.00,600.23,601.67,15.12,0000 0000 0000 0000 000000
2016-10-08 09:33:32,0.00,0.86,0.00,24.84,28.35,31.38,14.51,42.35,1031.96,2028.99,3186.01,2893.95,3281.99,600.02,601.38,15.17,0000 0000 0000 0000 000000
2016-10-08 09:38:33,0.00,0.86,0.00,24.83,28.35,31.35,14.44,42.29,1031.85,2028.99,3186.00,2893.81,3281.96,599.90,601.07,15.22,0000 0000 0000 0000 000000
2016-10-08 09:43:34,0.01,0.86,0.00,24.82,28.35,31.34,14.51,42.39,1031.78,2028.99,3185.99,2893.49,3281.81,600.10,601.39,15.27,0000 0000 0000 0000 000000
2016-10-08 09:48:35,0.02,0.86,0.00,24.85,28.35,31.36,14.39,42.38,1031.79,2028.99,3185.89,2893.19,3281.47,599.64,601.10,15.32,0000 0000 0000 0000 000000
2016-10-08 09:53:37,0.02,0.86,0.00,24.82,28.35,31.38,14.53,42.49,1031.78,2028.99,3185.31,2893.03,3281.09,599.86,601.19,15.37,0000 0000 0000 0000 000000
2016-10-08 09:58:38,0.00,0.86,0.00,24.86,28.34,31.35,14.53,42.47,1031.76,2028.99,3185.09,2893.01,3281.01,599.75,600.89,15.42,0000 0000 0000 0000 000000
2016-10-08 10:03:39,0.00,0.86,0.00,24.81,28.34,31.32,14.45,42.37,1031.76,2028.99,3185.01,2893.00,3281.00,599.87,601.12,15.47,0000 0000 0000 0000 000000
2016-10-08 10:08:40,0.00,0.86,0.00,24.81,28.34,31.30,14.45,42.41,1031.76,2028.99,3185.00,2893.00,3281.00,599.90,601.14,15.52,0000 0000 0000 0000 000000
2016-10-08 10:13:41,0.00,0.86,0.00,24.85,28.33,31.33,14.57,42.62,1031.76,2028.99,3184.99,2892.99,3280.98,599.88,601.03,15.57,0000 0000 0000 0000 000000
2016-10-08 10:18:42,0.01,0.86,0.00,24.81,28.33,31.34,14.55,42.53,1031.76,2028.99,3184.62,2892.94,3280.88,600.19,601.43,15.62,0000 0000 0000 0000 000000
2016-10-08 10:23:44,0.00,0.86,0.00,24.81,28.33,31.34,14.54,42.36,1031.76,2028.99,3184.33,2892.92,3280.74,600.10,601.37,15.67,0000 0000 0000 0000 000000
2016-10-08 10:28:45,0.00,0.87,0.00,24.82,28.33,31.34,14.51,42.51,1031.74,2028.99,3184.18,2892.88,3280.63,599.74,600.95,15.72,0000 0000 0000 0000 000000
2016-10-08 10:33:46,0.00,0.87,0.00,24.86,28.33,31.35,14.55,42.62,1031.74,2029.00,3184.08,2892.83,3280.45,600.29,601.40,15.77,0000 0000 0000 0000 000000
2016-10-08 10:38:48,0.01,0.87,0.00,24.79,28.33,31.31,14.45,42.30,1031.74,2029.00,3184.02,2892.60,3280.11,600.03,601.14,15.82,0000 0000 0000 0000 000000
2016-10-08 10:43:49,0.01,0.87,0.00,24.81,28.33,31.37,14.52,42.64,1031.73,2029.00,3184.01,2892.15,3280.02,600.00,601.12,15.87,0000 0000 0000 0000 000000
2016-10-08 10:48:50,0.00,0.87,0.00,24.86,28.32,31.39,14.48,42.54,1031.71,2029.00,3184.00,2892.13,3280.01,599.72,600.82,15.93,0000 0000 0000 0000 000000
2016-10-08 10:53:51,0.00,0.87,0.00,24.89,28.32,31.34,14.49,42.42,1031.66,2029.00,3184.00,2892.06,3280.00,599.60,600.63,15.98,0000 0000 0000 0000 000000
2016-10-08 10:58:53,0.00,0.87,0.00,24.85,28.33,31.33,14.55,42.49,1031.51,2029.00,3183.99,2892.01,3280.00,600.24,601.16,16.03,0000 0000 0000 0000 000000
2016-10-08 11:03:54,0.00,0.87,0.00,24.88,28.33,31.28,14.44,42.28,1031.35,2029.00,3183.98,2892.00,3280.00,600.22,601.13,16.08,0000 0000 0000 0000 000000
2016-10-08 11:08:55,0.00,0.87,0.00,24.88,28.33,31.29,14.65,42.50,1031.32,2029.00,3183.94,2892.00,3279.98,600.44,601.47,16.13,0000 0000 0000 0000 000000
2016-10-08 11:13:56,0.01,0.87,0.00,24.82,28.33,31.27,14.58,42.44,1031.31,2029.00,3183.45,2892.00,3279.88,599.85,600.97,16.18,0000 0000 0000 0000 000000
2016-10-08 11:18:58,0.01,0.87,0.00,24.87,28.33,31.32,14.57,42.48,1031.29,2029.00,3183.11,2891.99,3279.63,600.04,600.87,16.23,0000 0000 0000 0000 000000
2016-10-08 11:23:59,0.01,0.87,0.00,24.89,28.33,31.28,14.46,42.41,1031.29,2028.99,3183.09,2891.97,3279.45,599.91,600.71,16.28,0000 0000 0000 0000 000000
2016-10-08 11:29:00,0.00,0.87,0.00,24.80,28.33,31.34,14.52,42.48,1031.28,2028.99,3183.02,2891.97,3279.14,599.86,600.79,16.33,0000 0000 0000 0000 000000
2016-10-08 11:34:02,0.00,0.87,0.00,24.82,28.32,31.36,14.49,42.53,1031.27,2028.99,3183.02,2891.98,3279.13,599.99,600.95,16.38,0000 0000 0000 0000 000000
2016-10-08 11:39:03,0.00,0.87,0.00,24.87,28.32,31.32,14.44,42.36,1031.27,2028.99,3183.01,2891.94,3279.06,599.96,600.58,16.43,0000 0000 0000 0000 000000
2016-10-08 11:44:04,0.00,0.87,0.00,24.85,28.32,31.36,14.49,42.23,1031.27,2028.99,3183.01,2891.92,3279.06,599.86,600.60,16.48,0000 0000 0000 0000 000000
2016-10-08 11:49:05,0.00,0.87,0.00,24.89,28.32,31.31,14.53,42.45,1031.27,2028.99,3182.99,2891.85,3279.01,599.97,600.84,16.53,0000 0000 0000 0000 000000
2016-10-08 11:54:06,0.00,0.87,0.00,24.80,28.32,31.33,14.63,42.58,1031.27,2028.99,3182.99,2891.87,3279.01,600.53,601.41,16.58,0000 0000 0000 0000 000000
2016-10-08 11:59:07,0.00,0.87,0.00,24.84,28.32,31.39,14.49,42.47,1031.26,2028.99,3183.00,2891.87,3279.03,600.15,601.10,16.63,0000 0000 0000 0000 000000
2016-10-08 12:04:08,0.01,0.87,0.00,24.84,28.32,31.35,14.52,42.40,1031.24,2028.99,3183.00,2891.45,3279.00,600.15,600.92,16.68,0000 0000 0000 0000 000000
2016-10-08 12:09:10,0.00,0.87,0.00,24.83,28.32,31.38,14.56,42.48,1031.16,2028.99,3182.99,2891.21,3279.00,600.05,600.90,16.73,0000 0000 0000 0000 000000
2016-10-08 12:14:11,0.00,0.87,0.00,24.84,28.32,31.31,14.57,42.52,1031.14,2028.99,3182.98,2891.07,3279.00,600.23,601.05,16.78,0000 0000 0000 0000 000000
2016-10-08 12:19:12,0.00,0.87,0.00,24.87,28.32,31.31,14.58,42.51,1031.07,2028.99,3182.92,2891.03,3278.99,600.32,601.02,16.83,0000 0000 0000 0000 000000
2016-10-08 12:24:14,0.00,0.87,0.00,24.88,28.32,31.30,14.47,42.57,1030.94,2028.99,3182.90,2891.01,3278.98,599.84,600.45,16.88,0000 0000 0000 0000 000000
2016-10-08 12:29:15,0.00,0.87,0.00,24.84,28.32,31.30,14.48,42.58,1030.80,2028.99,3182.87,2891.01,3278.97,600.17,600.82,16.93,0000 0000 0000 0000 000000
2016-10-08 12:34:16,0.00,0.87,0.00,24.78,28.32,31.34,14.56,42.69,1030.79,2028.99,3182.79,2891.00,3278.94,599.75,600.52,16.98,0000 0000 0000 0000 000000
2016-10-08 12:39:17,0.00,0.87,0.00,24.82,28.32,31.34,14.56,42.52,1030.79,2028.99,3182.58,2891.00,3278.93,600.25,601.05,17.03,0000 0000 0000 0000 000000
2016-10-08 12:44:18,0.00,0.87,0.00,24.89,28.32,31.34,14.50,42.44,1030.78,2028.99,3182.21,2891.00,3278.79,600.32,600.84,17.08,0000 0000 0000 0000 000000
2016-10-08 12:49:19,0.01,0.87,0.00,24.85,28.32,31.36,14.48,42.58,1030.78,2028.99,3182.04,2891.00,3278.43,600.06,600.57,17.13,0000 0000 0000 0000 000000
2016-10-08 12:54:20,-0.00,0.87,0.00,24.82,28.31,31.34,14.46,42.43,1030.78,2028.99,3182.06,2891.00,3278.60,599.66,600.28,17.18,0000 0000 0000 0000 000000